Volver al catálogo

STARLINK-5300

ActivoComunicacionesVLEO
NORAD 55676·PAYLOAD·🇺🇸 United States

Lanzado Feb 17, 2023 desde Vandenberg Space Force Base

Loading…

Próximos Pases (próximas 24 horas)

TLE

ActualizadoSource: CelesTrak SupGP

Época: Sep 14, 2026, 21:17 UTC

1 55676C 23021BA  26257.88729167 -.00009326  00000+0 -78159-3 0  2578
2 55676  70.0030  27.4577 0003081 274.6714 198.4441 14.98332459    16

Sigue STARLINK-5300 en tiempo real con AllMySat

Download on the App Store